TimeEDT,TemperatureF,Dew PointF,Humidity,Sea Level PressureIn,VisibilityMPH,Wind Direction,Wind SpeedMPH,Gust SpeedMPH,PrecipitationIn,Events,Conditions,WindDirDegrees,DateUTC
12:15 AM,68.0,64.4,88,29.99,10.0,Calm,Calm,-,N/A,,Clear,0,2013-06-24 04:15:00
12:35 AM,66.2,64.4,94,29.98,4.0,Calm,Calm,-,N/A,,Clear,0,2013-06-24 04:35:00
12:55 AM,66.2,64.4,94,29.98,5.0,Calm,Calm,-,N/A,,Clear,0,2013-06-24 04:55:00
1:15 AM,66.2,64.4,94,29.98,7.0,NW,3.5,-,N/A,,Clear,310,2013-06-24 05:15:00
1:35 AM,66.2,62.6,88,29.97,5.0,Calm,Calm,-,N/A,,Clear,0,2013-06-24 05:35:00
1:55 AM,66.2,62.6,88,29.97,3.0,SW,5.8,-,N/A,,Clear,220,2013-06-24 05:55:00
2:15 AM,68.0,64.4,88,29.97,10.0,SW,4.6,-,N/A,,Clear,220,2013-06-24 06:15:00
2:35 AM,68.0,64.4,88,29.96,10.0,SSW,5.8,-,N/A,,Clear,210,2013-06-24 06:35:00
2:55 AM,68.0,64.4,88,29.96,10.0,West,3.5,-,N/A,,Clear,260,2013-06-24 06:55:00
3:15 AM,66.2,62.6,88,29.95,6.0,SW,4.6,-,N/A,,Clear,230,2013-06-24 07:15:00
3:35 AM,68.0,64.4,88,29.96,8.0,Calm,Calm,-,N/A,,Clear,0,2013-06-24 07:35:00
3:55 AM,69.8,64.4,83,29.95,10.0,SSW,4.6,-,N/A,,Clear,200,2013-06-24 07:55:00
4:15 AM,69.8,64.4,83,29.95,10.0,SSW,5.8,-,N/A,,Clear,210,2013-06-24 08:15:00
4:35 AM,69.8,64.4,83,29.94,10.0,SW,5.8,-,N/A,,Clear,220,2013-06-24 08:35:00
4:55 AM,69.8,64.4,83,29.95,10.0,SW,3.5,-,N/A,,Clear,220,2013-06-24 08:55:00
5:15 AM,68.0,64.4,88,29.94,6.0,SSW,4.6,-,N/A,,Clear,210,2013-06-24 09:15:00
5:35 AM,68.0,64.4,88,29.95,9.0,SW,4.6,-,N/A,,Clear,230,2013-06-24 09:35:00
5:55 AM,69.8,64.4,83,29.94,9.0,SW,4.6,-,N/A,,Clear,220,2013-06-24 09:55:00
6:15 AM,69.8,66.2,88,29.94,10.0,SSW,4.6,-,N/A,,Clear,210,2013-06-24 10:15:00
6:35 AM,71.6,66.2,83,29.94,10.0,SW,4.6,-,N/A,,Clear,220,2013-06-24 10:35:00
6:55 AM,71.6,66.2,83,29.94,10.0,SSW,5.8,-,N/A,,Clear,210,2013-06-24 10:55:00
7:15 AM,73.4,66.2,78,29.95,10.0,SW,6.9,-,N/A,,Clear,220,2013-06-24 11:15:00
7:35 AM,73.4,68.0,83,29.95,10.0,SW,3.5,-,N/A,,Clear,230,2013-06-24 11:35:00
7:55 AM,75.2,68.0,78,29.94,10.0,SSW,4.6,-,N/A,,Clear,210,2013-06-24 11:55:00
8:15 AM,77.0,68.0,74,29.94,10.0,SW,4.6,-,N/A,,Clear,220,2013-06-24 12:15:00
8:35 AM,78.8,68.0,69,29.94,10.0,West,4.6,-,N/A,,Clear,260,2013-06-24 12:35:00
8:55 AM,78.8,68.0,69,29.94,10.0,West,9.2,16.1,N/A,,Clear,270,2013-06-24 12:55:00
9:15 AM,80.6,68.0,65,29.94,10.0,West,10.4,-,N/A,,Clear,270,2013-06-24 13:15:00
9:35 AM,82.4,68.0,62,29.93,10.0,WSW,12.7,-,N/A,,Clear,250,2013-06-24 13:35:00
9:55 AM,82.4,68.0,62,29.93,10.0,West,10.4,-,N/A,,Clear,270,2013-06-24 13:55:00
10:15 AM,84.2,69.8,62,29.93,10.0,West,9.2,-,N/A,,Clear,270,2013-06-24 14:15:00
10:35 AM,84.2,66.2,55,29.92,10.0,West,9.2,19.6,N/A,,Clear,270,2013-06-24 14:35:00
10:55 AM,84.2,66.2,55,29.93,10.0,West,17.3,20.7,N/A,,Clear,270,2013-06-24 14:55:00
11:15 AM,84.2,66.2,55,29.93,10.0,WNW,13.8,19.6,N/A,,Clear,300,2013-06-24 15:15:00
11:35 AM,84.2,66.2,55,29.92,10.0,West,11.5,18.4,N/A,,Clear,280,2013-06-24 15:35:00
11:55 AM,86.0,64.4,48,29.93,10.0,West,16.1,21.9,N/A,,Clear,280,2013-06-24 15:55:00
12:15 PM,87.8,66.2,49,29.93,10.0,West,12.7,-,N/A,,Partly Cloudy,280,2013-06-24 16:15:00
12:35 PM,87.8,64.4,46,29.92,10.0,West,12.7,20.7,N/A,,Clear,280,2013-06-24 16:35:00
12:55 PM,87.8,64.4,46,29.92,10.0,West,10.4,18.4,N/A,,Clear,280,2013-06-24 16:55:00
1:15 PM,89.6,66.2,46,29.92,10.0,West,15.0,20.7,N/A,,Clear,270,2013-06-24 17:15:00
1:35 PM,89.6,64.4,43,29.91,10.0,West,11.5,19.6,N/A,,Clear,280,2013-06-24 17:35:00
1:55 PM,89.6,66.2,46,29.90,10.0,West,12.7,18.4,N/A,,Clear,280,2013-06-24 17:55:00
2:15 PM,89.6,64.4,43,29.90,10.0,West,10.4,20.7,N/A,,Clear,280,2013-06-24 18:15:00
2:35 PM,89.6,64.4,43,29.90,10.0,West,12.7,18.4,N/A,,Clear,280,2013-06-24 18:35:00
2:55 PM,91.4,64.4,41,29.89,10.0,West,12.7,20.7,N/A,,Clear,270,2013-06-24 18:55:00
3:15 PM,89.6,64.4,43,29.88,10.0,West,13.8,23.0,N/A,,Clear,280,2013-06-24 19:15:00
3:35 PM,91.4,62.6,38,29.88,10.0,West,11.5,23.0,N/A,,Clear,260,2013-06-24 19:35:00
3:55 PM,91.4,64.4,41,29.88,10.0,West,13.8,20.7,N/A,,Clear,270,2013-06-24 19:55:00
4:15 PM,91.4,64.4,41,29.87,10.0,WNW,9.2,-,N/A,,Clear,300,2013-06-24 20:15:00
4:35 PM,91.4,64.4,41,29.86,10.0,WNW,10.4,-,N/A,,Clear,290,2013-06-24 20:35:00
4:55 PM,91.4,64.4,41,29.86,10.0,WNW,9.2,-,N/A,,Clear,290,2013-06-24 20:55:00
5:15 PM,91.4,64.4,41,29.86,10.0,West,10.4,16.1,N/A,,Clear,270,2013-06-24 21:15:00
5:35 PM,89.6,64.4,43,29.86,10.0,West,6.9,-,N/A,,Clear,280,2013-06-24 21:35:00
5:55 PM,87.8,66.2,49,29.86,10.0,West,6.9,-,N/A,,Clear,270,2013-06-24 21:55:00
6:15 PM,80.6,60.8,51,29.89,10.0,WNW,11.5,26.5,N/A,,Partly Cloudy,290,2013-06-24 22:15:00
6:35 PM,78.8,60.8,54,29.87,10.0,West,11.5,20.7,N/A,Thunderstorm,Clear,280,2013-06-24 22:35:00
6:55 PM,75.2,60.8,61,29.89,10.0,WNW,8.1,-,N/A,,Clear,290,2013-06-24 22:55:00
7:15 PM,75.2,62.6,65,29.89,10.0,West,9.2,-,N/A,,Mostly Cloudy,280,2013-06-24 23:15:00
7:35 PM,71.6,64.4,78,29.87,10.0,West,10.4,-,N/A,,Overcast,270,2013-06-24 23:35:00
7:55 PM,71.6,64.4,78,29.86,10.0,SW,3.5,-,N/A,,Mostly Cloudy,230,2013-06-24 23:55:00
8:15 PM,71.6,64.4,78,29.87,10.0,WSW,5.8,-,N/A,,Clear,250,2013-06-25 00:15:00
8:35 PM,71.6,64.4,78,29.89,10.0,SW,6.9,-,N/A,,Clear,230,2013-06-25 00:35:00
8:55 PM,71.6,64.4,78,29.90,10.0,WSW,3.5,-,N/A,,Clear,250,2013-06-25 00:55:00
9:15 PM,73.4,64.4,73,29.91,10.0,West,8.1,-,N/A,,Clear,270,2013-06-25 01:15:00
9:35 PM,71.6,64.4,78,29.92,10.0,WSW,5.8,-,N/A,,Partly Cloudy,240,2013-06-25 01:35:00
9:55 PM,71.6,64.4,78,29.92,10.0,WSW,4.6,-,N/A,,Partly Cloudy,240,2013-06-25 01:55:00
10:15 PM,71.6,64.4,78,29.92,10.0,SW,6.9,-,N/A,,Partly Cloudy,220,2013-06-25 02:15:00
10:35 PM,71.6,64.4,78,29.92,10.0,SW,11.5,-,N/A,,Mostly Cloudy,220,2013-06-25 02:35:00
11:15 PM,71.6,64.4,78,29.91,10.0,WSW,6.9,-,N/A,,Overcast,240,2013-06-25 03:15:00
11:35 PM,71.6,64.4,78,29.91,10.0,WSW,5.8,-,N/A,,Mostly Cloudy,240,2013-06-25 03:35:00
11:55 PM,71.6,64.4,78,29.90,10.0,WNW,6.9,-,N/A,,Scattered Clouds,290,2013-06-25 03:55:00